Grayling, MI

7:06 AM EDT on September 30, 2016 (GMT -0400)
Grayling

Weather History for KGOV - February, 2013

Change the Weather History Date:

Wednesday, February 27, 2013

  Actual Average (KHTL) Record (KHTL)
Temperature  
Mean Temperature 33 °F 23 °F  
Max Temperature 35 °F 33 °F 50 °F (2000)
Min Temperature 31 °F 13 °F -27 °F (1934)
Degree Days  
Heating Degree Days 32 42  
Month to date heating degree days 1219  
Since 1 July heating degree days 5831  
Moisture  
Dew Point 31 °F    
Average Humidity 93    
Maximum Humidity 99    
Minimum Humidity 85    
Precipitation  
Precipitation 0.00 in 0.06 in 0.68 in (1981)
Month to date precipitation 1.16  
Year to date precipitation 2.67  
Snow  
Snow 0.00 in 0.30 in 5.30 in (1971)
Month to date snowfall 12.0  
Since 1 July snowfall 54.1  
Snow Depth -    
Sea Level Pressure  
Sea Level Pressure 29.61 in    
Wind  
Wind Speed 14 mph (NE)    
Max Wind Speed 18 mph    
Max Gust Speed 29 mph    
Visibility 6 miles    
Events Snow    
T = Trace of Precipitation, MM = Missing Value Source: NWS Daily Summary

Daily Weather History Graph

Daily Weather History Graph

Search for Another Location

Airport or City:

Trip Planner

Search our weather history database for the weather conditions in past years. The results will help you decide how hot, cold, wet, or windy it might be!

Date:

Astronomy

Feb. 27, 2013 Rise Set
Actual Time 7:19 AM EST 6:24 PM EST
Civil Twilight 6:50 AM EST 6:53 PM EST
Nautical Twilight 6:16 AM EST 7:27 PM EST
Astronomical Twilight 5:42 AM EST 8:01 PM EST
Moon 8:53 PM EST (2/27) 7:47 AM EST (2/27)
Length of Visible Light 12h 03m
Length of Day
11h 04m
Waning Gibbous, 96% of the Moon is Illuminated
Feb 27
Waning Gibbous
Mar 4
Last Quarter
Mar 11
New
Mar 19
First Quarter
Mar 27
Full

Hourly Weather History & Observations

Time (EST) Temp. Windchill Dew Point Humidity Pressure Visibility Wind Dir Wind Speed Gust Speed Precip Events Conditions
12:15 AM 31.8 °F 21.0 °F 29.5 °F 91% 29.67 in 5.0 mi NE 16.1 mph 19.6 mph N/A Snow Light Snow
12:35 AM 33.1 °F 23.9 °F 31.3 °F 93% 29.66 in 5.0 mi NE 12.7 mph 24.2 mph N/A   Overcast
12:54 AM 32.9 °F 21.6 °F 30.9 °F 92% 29.66 in 7.0 mi NE 18.4 mph 25.3 mph N/A   Overcast
1:15 AM 33.3 °F 23.2 °F 30.9 °F 91% 29.65 in 7.0 mi ENE 15.0 mph 23.0 mph N/A   Overcast
1:35 AM 33.3 °F 23.2 °F 31.1 °F 92% 29.64 in 7.0 mi ENE 15.0 mph 25.3 mph N/A Snow Light Snow
1:54 AM 33.3 °F 23.7 °F 31.1 °F 92% 29.64 in 5.0 mi ENE 13.8 mph 25.3 mph N/A Snow Light Snow
2:15 AM 33.3 °F 23.2 °F 31.1 °F 92% 29.63 in 5.0 mi NE 15.0 mph 21.9 mph N/A   Overcast
2:35 AM 33.3 °F 22.8 °F 31.5 °F 93% 29.62 in 4.0 mi ENE 16.1 mph 21.9 mph N/A Snow Light Snow
2:54 AM 33.3 °F 23.2 °F 31.8 °F 94% 29.61 in 2.5 mi NE 15.0 mph - N/A Snow Light Snow
3:15 AM 33.3 °F 24.1 °F 32.0 °F 95% 29.60 in 3.0 mi ENE 12.7 mph 20.7 mph N/A Snow Light Snow
3:35 AM 33.3 °F 23.2 °F 32.2 °F 96% 29.59 in 1.8 mi ENE 15.0 mph 20.7 mph N/A Snow Light Snow
3:54 AM 33.3 °F 24.1 °F 32.4 °F 96% 29.59 in 1.8 mi ENE 12.7 mph 19.6 mph N/A Snow Light Snow
4:15 AM 33.3 °F 23.7 °F 32.0 °F 95% 29.58 in 4.0 mi ENE 13.8 mph 20.7 mph N/A Snow Light Snow
4:34 AM 33.3 °F 23.2 °F 32.0 °F 95% 29.58 in 2.5 mi NE 15.0 mph 23.0 mph N/A Snow Light Snow
4:55 AM 33.3 °F 23.2 °F 32.0 °F 95% 29.58 in 3.0 mi ENE 15.0 mph - N/A Snow Light Snow
5:15 AM 33.3 °F 23.7 °F 32.0 °F 95% 29.58 in 4.0 mi NE 13.8 mph 23.0 mph N/A Snow Light Snow
5:55 AM 33.3 °F 24.1 °F 32.0 °F 95% 29.58 in 3.0 mi NE 12.7 mph - N/A Snow Light Snow
6:15 AM 33.3 °F 23.7 °F 32.0 °F 95% 29.58 in 5.0 mi ENE 13.8 mph 18.4 mph N/A Snow Light Snow
6:35 AM 33.3 °F 23.2 °F 32.0 °F 95% 29.58 in 5.0 mi ENE 15.0 mph - N/A Snow Light Snow
6:55 AM 33.3 °F 24.1 °F 32.0 °F 95% 29.58 in 7.0 mi NE 12.7 mph - N/A   Overcast
7:15 AM 33.3 °F 24.6 °F 32.0 °F 95% 29.58 in 7.0 mi NE 11.5 mph 17.3 mph N/A Snow Light Snow
7:35 AM 33.3 °F 23.7 °F 32.0 °F 95% 29.58 in 4.0 mi NE 13.8 mph - N/A Snow Light Snow
7:55 AM 33.3 °F 24.1 °F 32.0 °F 95% 29.58 in 5.0 mi NE 12.7 mph - N/A Snow Light Snow
8:15 AM 33.3 °F 24.1 °F 32.0 °F 95% 29.59 in 3.0 mi NE 12.7 mph 18.4 mph N/A Snow Light Snow
8:35 AM 33.3 °F 24.1 °F 32.0 °F 95% 29.59 in 5.0 mi NE 12.7 mph 20.7 mph N/A   Overcast
8:55 AM 33.3 °F 24.1 °F 31.6 °F 94% 29.60 in 7.0 mi ENE 12.7 mph - N/A   Overcast
9:15 AM 33.3 °F 24.6 °F 31.1 °F 92% 29.59 in 5.0 mi NE 11.5 mph 16.1 mph N/A Snow Light Snow
9:35 AM 33.3 °F 23.2 °F 31.1 °F 92% 29.59 in 5.0 mi ENE 15.0 mph 19.6 mph N/A Snow Light Snow
10:14 AM 33.3 °F 23.2 °F 30.7 °F 90% 29.59 in 5.0 mi NE 15.0 mph 23.0 mph N/A   Overcast
10:35 AM 33.6 °F 24.6 °F 30.7 °F 89% 29.59 in 7.0 mi NE 12.7 mph 20.7 mph N/A   Overcast
10:55 AM 34.0 °F 23.8 °F 30.9 °F 89% 29.59 in 5.0 mi NE 16.1 mph 21.9 mph N/A   Overcast
11:14 AM 34.7 °F 25.5 °F 30.9 °F 86% 29.59 in 10.0 mi NE 13.8 mph 23.0 mph N/A   Overcast
11:35 AM 35.8 °F 25.7 °F 31.6 °F 85% 29.59 in 10.0 mi ENE 17.3 mph 24.2 mph N/A   Overcast
11:55 AM 34.7 °F 25.5 °F 30.6 °F 85% 29.59 in 10.0 mi ENE 13.8 mph 28.8 mph N/A   Overcast
12:15 PM 34.3 °F 24.2 °F 30.2 °F 85% 29.59 in 10.0 mi ENE 16.1 mph 24.2 mph N/A   Overcast
12:35 PM 34.3 °F 24.2 °F 30.9 °F 87% 29.59 in 7.0 mi NE 16.1 mph 20.7 mph N/A   Overcast
12:55 PM 33.8 °F 23.9 °F 30.4 °F 87% 29.59 in 10.0 mi ENE 15.0 mph 25.3 mph N/A   Overcast
1:15 PM 33.3 °F 22.5 °F 30.2 °F 89% 29.59 in 10.0 mi NE 17.3 mph 20.7 mph N/A   Overcast
1:35 PM 33.4 °F 23.9 °F 30.6 °F 89% 29.58 in 10.0 mi ENE 13.8 mph - N/A   Overcast
1:55 PM 33.4 °F 23.9 °F 30.7 °F 90% 29.58 in 10.0 mi ENE 13.8 mph 18.4 mph N/A   Overcast
2:15 PM 33.8 °F 24.3 °F 30.9 °F 89% 29.58 in 10.0 mi NE 13.8 mph 18.4 mph N/A   Overcast
2:35 PM 33.3 °F 23.7 °F 30.9 °F 91% 29.58 in 7.0 mi ENE 13.8 mph - N/A   Overcast
2:55 PM 33.3 °F 24.6 °F 31.1 °F 92% 29.58 in 7.0 mi ENE 11.5 mph - N/A   Overcast
3:15 PM 33.3 °F 24.1 °F 31.1 °F 92% 29.58 in 10.0 mi NE 12.7 mph 19.6 mph N/A   Overcast
3:35 PM 33.6 °F 23.7 °F 31.1 °F 90% 29.58 in 10.0 mi NE 15.0 mph - N/A   Overcast
3:55 PM 34.2 °F 25.2 °F 30.9 °F 88% 29.58 in 10.0 mi NE 12.7 mph 18.4 mph N/A   Overcast
4:15 PM 33.4 °F 23.9 °F 30.2 °F 88% 29.59 in 10.0 mi NE 13.8 mph 23.0 mph N/A   Overcast
4:35 PM 33.4 °F 22.3 °F 30.6 °F 89% 29.59 in 7.0 mi NE 18.4 mph - N/A   Overcast
4:55 PM 33.3 °F 23.2 °F 31.1 °F 92% 29.60 in 3.0 mi NE 15.0 mph - N/A Snow Light Snow
5:15 PM 33.3 °F 23.7 °F 31.6 °F 94% 29.60 in 1.5 mi NE 13.8 mph 18.4 mph N/A Snow Light Snow
5:35 PM 33.3 °F 24.6 °F 32.2 °F 96% 29.60 in 1.8 mi NE 11.5 mph 16.1 mph N/A Snow Light Snow
5:55 PM 33.3 °F 25.7 °F 32.4 °F 96% 29.61 in 2.5 mi NNE 9.2 mph - N/A Snow Light Snow
6:15 PM 33.3 °F 24.6 °F 32.9 °F 99% 29.62 in 2.0 mi NE 11.5 mph - N/A Snow Light Snow
6:35 PM 33.3 °F 24.6 °F 32.9 °F 99% 29.62 in 3.0 mi NE 11.5 mph - N/A Snow Light Snow
6:55 PM 33.3 °F 24.1 °F 32.4 °F 96% 29.62 in 4.0 mi NNE 12.7 mph - N/A Snow Light Snow
7:15 PM 33.3 °F 24.1 °F 32.2 °F 96% 29.63 in 5.0 mi NNE 12.7 mph - N/A Snow Light Snow
7:34 PM 33.3 °F 25.1 °F 32.0 °F 95% 29.64 in 5.0 mi NE 10.4 mph - N/A Snow Light Snow
7:55 PM 33.3 °F 24.1 °F 32.0 °F 95% 29.64 in 5.0 mi NNE 12.7 mph 16.1 mph N/A Snow Light Snow
8:15 PM 33.3 °F 24.1 °F 32.0 °F 95% 29.64 in 5.0 mi NNE 12.7 mph - N/A Snow Light Snow
8:34 PM 33.3 °F 24.6 °F 31.8 °F 94% 29.63 in 10.0 mi NNE 11.5 mph 16.1 mph N/A   Overcast
8:55 PM 33.3 °F 24.6 °F 31.8 °F 94% 29.64 in 7.0 mi NNE 11.5 mph 16.1 mph N/A   Overcast
9:15 PM 32.9 °F 25.3 °F 31.8 °F 96% 29.64 in 3.0 mi NNE 9.2 mph - N/A Snow Light Snow
9:35 PM 32.9 °F 25.9 °F 31.6 °F 95% 29.64 in 10.0 mi NNE 8.1 mph - N/A   Overcast
9:55 PM 33.1 °F 24.9 °F 31.6 °F 94% 29.64 in 5.0 mi NNE 10.4 mph - N/A Snow Light Snow
10:15 PM 32.9 °F 25.3 °F 32.0 °F 96% 29.64 in 3.0 mi North 9.2 mph - N/A Snow Light Snow
10:35 PM 32.4 °F 26.0 °F 31.5 °F 96% 29.64 in 4.0 mi North 6.9 mph - N/A Snow Light Snow
10:55 PM 32.5 °F 25.5 °F 31.6 °F 96% 29.64 in 4.0 mi North 8.1 mph - N/A Snow Light Snow
11:14 PM 31.8 °F 23.3 °F 30.6 °F 95% 29.64 in 3.0 mi North 10.4 mph - N/A Snow Light Snow
11:35 PM 32.9 °F 25.9 °F 31.8 °F 96% 29.64 in 4.0 mi North 8.1 mph - N/A Snow Light Snow
11:55 PM 32.9 °F 24.1 °F 31.6 °F 95% 29.64 in 7.0 mi North 11.5 mph - N/A   Overcast